Terminal Aerodrome Forecast
Issued by NWS

Home | Current Version | Previous Version | Text Only | Print | Product List | Glossary On
Versions: 1 2 3 4 5 6 7 8 9 10 11 12 13 14 15 16 17 18 19
518
FTUS42 KFFC 242338
TAFRYY
TAF
KRYY 242338Z 2500/2524 13005KT P6SM BKN060
     FM250200 14005KT P6SM SCT060
     FM250900 14004KT P6SM SCT012 BKN025
     FM251100 14004KT P6SM BKN012
     FM251500 16009KT P6SM BKN025
     FM251800 16010KT P6SM BKN040 PROB30 2521/2524 4SM -TSRA
      BKN035CB
      AMD NOT SKED 2504/2512=

USA.gov is the U.S. government's official web portal to all federal, state and local government web resources and services.